IBS1756 LEZL-LEMD

Flight info

Callsign IBS1756
Flight time 0h 44m
Altitude 26000
Route HIJ Z230 SOTUK
Aircraft A320/M-SDE3FGHIRWY/LB1

Departure

Time 2026-04-14 10:57
Airport Seville Airport (LEZL)

Arrival

Time 2026-04-14 11:41
Airport Adolfo Suárez Madrid–Barajas Airport (LEMD)
Time Latitude Longitude Altitude Speed Heading
2026-04-14 10:20 37.42303 -5.89842 94 ft 0 kts 315°
2026-04-14 10:40 37.42297 -5.89834 95 ft 2 kts 310°
2026-04-14 10:41 37.42286 -5.89818 95 ft 2 kts 307°
2026-04-14 10:41 37.42277 -5.89801 93 ft 2 kts 296°
2026-04-14 10:41 37.42271 -5.89782 93 ft 2 kts 272°
2026-04-14 10:41 37.42273 -5.89761 93 ft 2 kts 233°
2026-04-14 10:42 37.42283 -5.89748 92 ft 1 kts 213°
2026-04-14 10:42 37.42285 -5.89746 92 ft 0 kts 211°
2026-04-14 10:44 37.42268 -5.89759 93 ft 5 kts 212°
2026-04-14 10:44 37.42211 -5.89823 94 ft 18 kts 225°
2026-04-14 10:45 37.42124 -5.89933 94 ft 17 kts 225°
2026-04-14 10:45 37.42056 -5.90028 94 ft 11 kts 249°
2026-04-14 10:45 37.42020 -5.90094 94 ft 9 kts 188°
2026-04-14 10:45 37.41979 -5.90154 95 ft 17 kts 269°
2026-04-14 10:46 37.41979 -5.90361 94 ft 27 kts 269°
2026-04-14 10:46 37.41980 -5.90603 93 ft 29 kts 269°
2026-04-14 10:46 37.41978 -5.90861 91 ft 27 kts 268°
2026-04-14 10:46 37.41951 -5.90982 92 ft 13 kts 238°
2026-04-14 10:47 37.41907 -5.91078 89 ft 12 kts 240°
2026-04-14 10:47 37.41892 -5.91108 89 ft 0 kts 237°
2026-04-14 10:55 37.41868 -5.91156 89 ft 14 kts 238°
2026-04-14 10:55 37.41794 -5.91176 92 ft 11 kts 131°
2026-04-14 10:56 37.41789 -5.91059 91 ft 26 kts 89°
2026-04-14 10:56 37.41790 -5.90505 97 ft 98 kts 90°
2026-04-14 10:56 37.41795 -5.89392 102 ft 153 kts 91°
2026-04-14 10:56 37.41764 -5.88028 695 ft 154 kts 88°
2026-04-14 10:57 37.41737 -5.86650 1388 ft 163 kts 86°
2026-04-14 10:57 37.41714 -5.85150 1796 ft 180 kts 86°
2026-04-14 10:57 37.41690 -5.83489 2302 ft 197 kts 86°
2026-04-14 10:57 37.41689 -5.81681 2749 ft 216 kts 80°
2026-04-14 10:58 37.41977 -5.79759 3280 ft 233 kts 72°
2026-04-14 10:58 37.42414 -5.77714 3882 ft 250 kts 64°
2026-04-14 10:58 37.43451 -5.75973 4583 ft 252 kts 34°
2026-04-14 10:58 37.44949 -5.74889 5628 ft 249 kts 22°
2026-04-14 10:59 37.46533 -5.73943 6551 ft 254 kts 22°
2026-04-14 10:59 37.48135 -5.72981 7464 ft 256 kts 22°
2026-04-14 10:59 37.49754 -5.72007 8372 ft 259 kts 21°
2026-04-14 10:59 37.51394 -5.71017 9265 ft 263 kts 21°
2026-04-14 11:00 37.53051 -5.70014 10174 ft 266 kts 21°
2026-04-14 11:00 37.54781 -5.68967 10719 ft 282 kts 21°
2026-04-14 11:00 37.56631 -5.67857 10979 ft 306 kts 21°
2026-04-14 11:00 37.58582 -5.66682 11565 ft 316 kts 22°
2026-04-14 11:01 37.60572 -5.65474 12353 ft 319 kts 21°
2026-04-14 11:01 37.62553 -5.64267 13159 ft 321 kts 21°
2026-04-14 11:01 37.64599 -5.63018 13962 ft 324 kts 21°
2026-04-14 11:01 37.66614 -5.61792 14646 ft 327 kts 21°
2026-04-14 11:02 37.68699 -5.60524 15327 ft 330 kts 21°
2026-04-14 11:02 37.70780 -5.59262 16005 ft 333 kts 21°
2026-04-14 11:02 37.72851 -5.58004 16660 ft 336 kts 21°
2026-04-14 11:02 37.74993 -5.56701 17307 ft 340 kts 21°
2026-04-14 11:03 37.77107 -5.55413 17968 ft 343 kts 21°
2026-04-14 11:03 37.79266 -5.54094 18620 ft 346 kts 21°
2026-04-14 11:03 37.81444 -5.52763 19179 ft 349 kts 21°
2026-04-14 11:03 37.82922 -5.51860 19568 ft 351 kts 21°
2026-04-14 11:04 37.85129 -5.50515 20151 ft 353 kts 20°
2026-04-14 11:04 37.87353 -5.49159 20722 ft 356 kts 21°
2026-04-14 11:04 37.89592 -5.47785 21316 ft 359 kts 21°
2026-04-14 11:04 37.91845 -5.46400 21879 ft 361 kts 21°
2026-04-14 11:05 37.94118 -5.45007 22429 ft 364 kts 20°
2026-04-14 11:05 37.96411 -5.43606 22943 ft 368 kts 20°
2026-04-14 11:05 37.98725 -5.42192 23468 ft 371 kts 20°
2026-04-14 11:05 38.01055 -5.40765 23968 ft 373 kts 20°
2026-04-14 11:06 38.03401 -5.39327 24412 ft 376 kts 20°
2026-04-14 11:06 38.05760 -5.37878 24824 ft 378 kts 20°
2026-04-14 11:06 38.08133 -5.36418 25226 ft 380 kts 20°
2026-04-14 11:06 38.10517 -5.34949 25625 ft 382 kts 20°
2026-04-14 11:07 38.12910 -5.33472 26028 ft 383 kts 20°
2026-04-14 11:07 38.15308 -5.31991 26209 ft 384 kts 20°
2026-04-14 11:07 38.17686 -5.30518 26243 ft 377 kts 20°
2026-04-14 11:07 38.20036 -5.29062 26251 ft 375 kts 20°
2026-04-14 11:08 38.22377 -5.27614 26247 ft 374 kts 20°
2026-04-14 11:08 38.24716 -5.26169 26242 ft 374 kts 20°
2026-04-14 11:08 38.27053 -5.24724 26246 ft 373 kts 20°
2026-04-14 11:08 38.29391 -5.23281 26247 ft 373 kts 20°
2026-04-14 11:09 38.31727 -5.21840 26243 ft 373 kts 20°
2026-04-14 11:09 38.34063 -5.20395 26245 ft 373 kts 20°
2026-04-14 11:09 38.36396 -5.18948 26246 ft 373 kts 20°
2026-04-14 11:10 38.41061 -5.16050 26248 ft 373 kts 20°
2026-04-14 11:10 38.43391 -5.14600 26243 ft 373 kts 20°
2026-04-14 11:10 38.45719 -5.13147 26240 ft 372 kts 20°
2026-04-14 11:10 38.48046 -5.11695 26245 ft 372 kts 20°
2026-04-14 11:11 38.50372 -5.10245 26246 ft 372 kts 20°
2026-04-14 11:11 38.52719 -5.08873 26240 ft 370 kts 18°
2026-04-14 11:11 38.55092 -5.07622 26235 ft 369 kts 16°
2026-04-14 11:11 38.57488 -5.06431 26237 ft 369 kts 15°
2026-04-14 11:12 38.59879 -5.05265 26239 ft 369 kts 15°
2026-04-14 11:12 38.62273 -5.04087 26227 ft 369 kts 16°
2026-04-14 11:12 38.64664 -5.02894 26229 ft 369 kts 16°
2026-04-14 11:12 38.67054 -5.01684 26233 ft 369 kts 16°
2026-04-14 11:13 38.69439 -5.00464 26235 ft 369 kts 17°
2026-04-14 11:13 38.71823 -4.99238 26227 ft 369 kts 17°
2026-04-14 11:13 38.74207 -4.98007 26228 ft 369 kts 17°
2026-04-14 11:13 38.76589 -4.96778 26227 ft 369 kts 17°
2026-04-14 11:14 38.78973 -4.95550 26234 ft 369 kts 17°
2026-04-14 11:14 38.81359 -4.94323 26220 ft 369 kts 17°
2026-04-14 11:14 38.83711 -4.93112 26224 ft 369 kts 17°
2026-04-14 11:14 38.86096 -4.91882 26227 ft 369 kts 17°
2026-04-14 11:15 38.88480 -4.90652 26230 ft 369 kts 17°
2026-04-14 11:15 38.90865 -4.89420 26221 ft 369 kts 17°
2026-04-14 11:15 38.93249 -4.88190 26221 ft 369 kts 17°
2026-04-14 11:15 38.95634 -4.86960 26224 ft 369 kts 17°
2026-04-14 11:16 38.98021 -4.85726 26226 ft 370 kts 17°
2026-04-14 11:16 39.00405 -4.84490 26223 ft 370 kts 17°
2026-04-14 11:16 39.02821 -4.83238 26220 ft 370 kts 17°
2026-04-14 11:16 39.05206 -4.82001 26224 ft 369 kts 17°
2026-04-14 11:17 39.07560 -4.80778 26225 ft 369 kts 17°
2026-04-14 11:17 39.09944 -4.79538 26217 ft 369 kts 17°
2026-04-14 11:17 39.12328 -4.78296 26214 ft 370 kts 17°
2026-04-14 11:17 39.14711 -4.77056 26220 ft 370 kts 17°
2026-04-14 11:18 39.17097 -4.75813 26220 ft 370 kts 18°
2026-04-14 11:18 39.19370 -4.74219 26209 ft 377 kts 28°
2026-04-14 11:18 39.21408 -4.72036 26212 ft 386 kts 38°
2026-04-14 11:18 39.23301 -4.69580 26216 ft 386 kts 38°
2026-04-14 11:19 39.25194 -4.67124 26218 ft 386 kts 38°
2026-04-14 11:19 39.27086 -4.64665 26215 ft 386 kts 38°
2026-04-14 11:19 39.28981 -4.62208 26214 ft 386 kts 38°
2026-04-14 11:19 39.30875 -4.59755 26218 ft 386 kts 38°
2026-04-14 11:20 39.32767 -4.57303 26150 ft 385 kts 38°
2026-04-14 11:20 39.34653 -4.54858 25570 ft 383 kts 38°
2026-04-14 11:20 39.36522 -4.52429 25072 ft 379 kts 38°
2026-04-14 11:20 39.38367 -4.50024 24597 ft 375 kts 39°
2026-04-14 11:21 39.40190 -4.47647 24118 ft 371 kts 39°
2026-04-14 11:21 39.41997 -4.45291 23657 ft 367 kts 39°
2026-04-14 11:21 39.43787 -4.42958 23187 ft 363 kts 39°
2026-04-14 11:21 39.45553 -4.40656 22765 ft 358 kts 39°
2026-04-14 11:22 39.47296 -4.38383 22340 ft 353 kts 39°
2026-04-14 11:22 39.49015 -4.36139 21919 ft 349 kts 39°
2026-04-14 11:22 39.50712 -4.33923 21501 ft 344 kts 39°
2026-04-14 11:22 39.52386 -4.31733 21079 ft 341 kts 39°
2026-04-14 11:23 39.54076 -4.29529 20556 ft 346 kts 39°
2026-04-14 11:23 39.55766 -4.27321 20062 ft 344 kts 39°
2026-04-14 11:23 39.57450 -4.25119 19566 ft 343 kts 39°
2026-04-14 11:23 39.59125 -4.22921 19073 ft 342 kts 39°
2026-04-14 11:24 39.60794 -4.20727 18570 ft 341 kts 40°
2026-04-14 11:24 39.62457 -4.18539 18025 ft 340 kts 40°
2026-04-14 11:24 39.64109 -4.16362 17541 ft 337 kts 40°
2026-04-14 11:24 39.65743 -4.14204 17060 ft 335 kts 40°
2026-04-14 11:25 39.67370 -4.12056 16567 ft 333 kts 40°
2026-04-14 11:25 39.68990 -4.09921 16096 ft 331 kts 40°
2026-04-14 11:25 39.70605 -4.07795 15623 ft 330 kts 40°
2026-04-14 11:25 39.72212 -4.05679 15139 ft 328 kts 41°
2026-04-14 11:26 39.73808 -4.03575 14795 ft 323 kts 41°
2026-04-14 11:26 39.75357 -4.01527 14672 ft 312 kts 41°
2026-04-14 11:26 39.76848 -3.99551 14555 ft 302 kts 40°
2026-04-14 11:26 39.78292 -3.97636 14438 ft 292 kts 40°
2026-04-14 11:27 39.79688 -3.95783 14312 ft 282 kts 40°
2026-04-14 11:27 39.81040 -3.93991 14177 ft 273 kts 40°
2026-04-14 11:27 39.82353 -3.92256 14072 ft 265 kts 40°
2026-04-14 11:27 39.83625 -3.90572 13945 ft 257 kts 40°
2026-04-14 11:28 39.84865 -3.88927 13714 ft 253 kts 40°
2026-04-14 11:28 39.86091 -3.87300 13422 ft 251 kts 40°
2026-04-14 11:28 39.87313 -3.85682 13110 ft 250 kts 40°
2026-04-14 11:28 39.88532 -3.84071 12527 ft 260 kts 40°
2026-04-14 11:29 39.89835 -3.82354 12036 ft 271 kts 41°
2026-04-14 11:29 39.91173 -3.80582 11755 ft 276 kts 41°
2026-04-14 11:29 39.92519 -3.78790 11456 ft 277 kts 41°
2026-04-14 11:29 39.93861 -3.76996 11159 ft 276 kts 41°
2026-04-14 11:30 39.95201 -3.75207 10860 ft 275 kts 41°
2026-04-14 11:30 39.96535 -3.73423 10552 ft 274 kts 42°
2026-04-14 11:30 39.97864 -3.71647 10267 ft 274 kts 42°
2026-04-14 11:30 39.99194 -3.69873 9966 ft 274 kts 42°
2026-04-14 11:31 40.00520 -3.68099 9651 ft 273 kts 42°
2026-04-14 11:31 40.01842 -3.66329 9357 ft 272 kts 42°
2026-04-14 11:31 40.03160 -3.64564 9059 ft 271 kts 42°
2026-04-14 11:31 40.04476 -3.62805 8771 ft 270 kts 43°
2026-04-14 11:32 40.05785 -3.61053 8479 ft 270 kts 42°
2026-04-14 11:32 40.07093 -3.59302 8194 ft 269 kts 43°
2026-04-14 11:32 40.08396 -3.57556 8010 ft 269 kts 43°
2026-04-14 11:32 40.09699 -3.55808 8001 ft 269 kts 43°
2026-04-14 11:33 40.11000 -3.54058 7998 ft 269 kts 43°
2026-04-14 11:33 40.12312 -3.52296 7641 ft 275 kts 43°
2026-04-14 11:33 40.13642 -3.50509 7285 ft 271 kts 43°
2026-04-14 11:34 40.16222 -3.47036 6637 ft 264 kts 43°
2026-04-14 11:34 40.17511 -3.45336 6271 ft 262 kts 41°
2026-04-14 11:34 40.18840 -3.43719 6016 ft 260 kts 39°
2026-04-14 11:34 40.20191 -3.42141 5997 ft 261 kts 39°
2026-04-14 11:35 40.21663 -3.40795 5999 ft 258 kts 26°
2026-04-14 11:35 40.23244 -3.39680 5996 ft 258 kts 26°
2026-04-14 11:35 40.24865 -3.38698 6001 ft 256 kts 14°
2026-04-14 11:35 40.26626 -3.38473 6003 ft 255 kts 354°
2026-04-14 11:36 40.28384 -3.38778 6005 ft 254 kts 352°
2026-04-14 11:36 40.30044 -3.39210 5946 ft 231 kts 338°
2026-04-14 11:36 40.31356 -3.40258 5735 ft 216 kts 323°
2026-04-14 11:36 40.32535 -3.41452 5460 ft 213 kts 324°
2026-04-14 11:37 40.33686 -3.42616 5189 ft 204 kts 323°
2026-04-14 11:37 40.34788 -3.43729 4929 ft 196 kts 323°
2026-04-14 11:37 40.35849 -3.44801 4691 ft 190 kts 323°
2026-04-14 11:37 40.36884 -3.45846 4396 ft 186 kts 323°
2026-04-14 11:38 40.37894 -3.46867 4151 ft 180 kts 323°
2026-04-14 11:38 40.38852 -3.47837 3917 ft 168 kts 324°
2026-04-14 11:38 40.39746 -3.48741 3696 ft 157 kts 323°
2026-04-14 11:38 40.40600 -3.49606 3493 ft 153 kts 324°
2026-04-14 11:39 40.41425 -3.50441 3282 ft 149 kts 324°
2026-04-14 11:39 40.42237 -3.51262 3040 ft 147 kts 322°
2026-04-14 11:39 40.43046 -3.52081 2813 ft 147 kts 322°
2026-04-14 11:39 40.43867 -3.52915 2613 ft 152 kts 321°
2026-04-14 11:40 40.44718 -3.53777 2372 ft 155 kts 321°
2026-04-14 11:40 40.45552 -3.54621 2155 ft 148 kts 321°
2026-04-14 11:40 40.46350 -3.55431 1996 ft 143 kts 321°
2026-04-14 11:40 40.47081 -3.56173 1980 ft 117 kts 323°
2026-04-14 11:41 40.47605 -3.56703 1996 ft 75 kts 321°
2026-04-14 11:41 40.47916 -3.57018 1999 ft 39 kts 322°
2026-04-14 11:41 40.48082 -3.57198 2002 ft 22 kts 313°
2026-04-14 11:41 40.48147 -3.57355 2004 ft 12 kts 297°
2026-04-14 11:42 40.48169 -3.57412 2002 ft 6 kts 296°
2026-04-14 11:42 40.48204 -3.57513 2000 ft 18 kts 294°
2026-04-14 11:42 40.48194 -3.57663 1997 ft 15 kts 253°
2026-04-14 11:42 40.48267 -3.57763 1993 ft 19 kts 323°
2026-04-14 11:43 40.48398 -3.57888 1991 ft 26 kts 328°
2026-04-14 11:43 40.48539 -3.58006 2001 ft 21 kts 327°
2026-04-14 11:43 40.48597 -3.58133 2005 ft 17 kts 270°
2026-04-14 11:43 40.48597 -3.58319 2009 ft 23 kts 269°
2026-04-14 11:44 40.48596 -3.58532 2018 ft 22 kts 270°
2026-04-14 11:44 40.48595 -3.58715 2022 ft 13 kts 269°
2026-04-14 11:44 40.48642 -3.58807 2028 ft 19 kts 354°
2026-04-14 11:44 40.48787 -3.58810 2022 ft 21 kts
2026-04-14 11:45 40.48948 -3.58810 2022 ft 27 kts 359°
2026-04-14 11:45 40.49139 -3.58812 2030 ft 28 kts 360°
2026-04-14 11:45 40.49333 -3.58814 2022 ft 27 kts 359°
2026-04-14 11:45 40.49438 -3.58821 2022 ft 10 kts 334°
2026-04-14 11:46 40.49444 -3.58908 2028 ft 10 kts 268°
2026-04-14 11:46 40.49443 -3.58970 2030 ft 3 kts 269°
2026-04-14 11:46 40.49443 -3.58971 2030 ft 0 kts 269°